User: anonymous   Login
Location: Aurora Center
(43.5271°N, 98.5894°W)
Time: 06:37:36
(UTC-05:00)
Language:

Courier 1B Rocket - Orbit

View from above orbital plane
View from above orbital plane
View from above satellite
View from above satellite

Ground track
Ground track

The orbit data is extracted from the following two-line orbital elements,

1    59U 60013B   24201.08052161  .00000132  00000-0  52872-4 0  9990
2    59  28.2489 110.4895 0189092 214.8944 143.9074 13.53080664149411
Epoch (UTC): 19 July 2024 01:55:57
Eccentricity: 0.0189092
inclination: 28.2489°
perigee height: 920 km
apogee height: 1201 km
right ascension of ascending node: 110.4895°
argument of perigee: 214.8944°
revolutions per day: 13.53080664
mean anomaly at epoch: 143.9074°
orbit number at epoch: 14941

The dashed part of the orbit path shows where the satellite is in the earth's shadow,  

DLR